Home > Weather > Wilmington > Past weeks

Flag for USA Past Weather in Wilmington, North Carolina, USA — Yesterday and Last 2 Weeks

Now
81 °F

Broken clouds.


Feels Like: 85 °F
Forecast: 69 / 81 °F
Wind: 12 mph from Southeast

Location: New Hanover International Airport

Current Time: May 30, 2016 at 2:39:41 PM

Latest Report: May 30, 2016 at 2:02 PM


Visibility: 10 mi

Pressure: 29.93 "Hg

Humidity: 72%

Dew Point: 71 °F

Location of WilmingtonLocation

Past Weather in Wilmington — Graph

°F

Wilmington Temperature Yesterday

Maximum temperature yesterday: 82 °F (at 11:53 AM)
Minimum temperature yesterday: 72 °F (at 1:53 AM)
Average temperature yesterday: 76 °F

High & Low Weather Summary for the Past Weeks

 TemperatureHumidityPressure
High85 °F (May 25, 1:53 PM)100% (May 21, 4:53 AM)30.27 "Hg (May 21, 4:53 AM)
Low50 °F (May 16, 4:53 AM)30% (May 15, 5:53 PM)29.77 "Hg (May 22, 3:53 AM)
Average69 °F77%30.06 "Hg
* Reported May 15 12:53 PM — May 30 12:53 PM, Wilmington, Weather by CustomWeather, © 2016

Note: Actual official high and low records may vary slightly from our data, if they occured in-between our weather recording intervals... More about our weather records

Advertising

Wilmington Weather History for the Previous 24 Hours

Scroll right to see more
 ConditionsComfort  
Time TempWeatherWind HumidityBarometerVisibility
12:53 PM
Mon, May 30
81 °FScattered clouds.10 mph69%29.94 "Hg10 mi
11:53 AM81 °FBroken clouds.10 mph67%29.95 "Hg10 mi
10:53 AM81 °FPartly sunny.9 mph67%29.96 "Hg10 mi
9:53 AM80 °FBroken clouds.12 mph69%29.96 "Hg10 mi
8:53 AM78 °FPassing clouds.10 mph79%29.96 "Hg10 mi
7:53 AM74 °FScattered clouds.3 mph94%29.96 "Hg10 mi
7:03 AM73 °FScattered clouds.3 mph94%29.96 "Hg10 mi
5:53 AM71 °FPassing clouds.5 mph96%29.94 "Hg10 mi
4:53 AM72 °FPassing clouds.5 mph97%29.94 "Hg10 mi
3:53 AM72 °FPartly cloudy.3 mph97%29.95 "Hg10 mi
2:53 AM74 °FOvercast.3 mph91%29.96 "Hg10 mi
1:53 AM73 °FLight rain. Partly cloudy.3 mph97%29.98 "Hg9 mi
12:53 AM74 °FPassing clouds.3 mph94%29.98 "Hg10 mi
11:53 PM
Sun, May 29
74 °FMostly cloudy.3 mph94%29.99 "Hg10 mi
10:53 PM74 °FMostly cloudy.3 mph94%30.00 "Hg10 mi
9:53 PM75 °FPassing clouds.3 mph90%29.99 "Hg10 mi
8:53 PM75 °FLight rain. Fog.3 mph94%29.99 "Hg6 mi
7:53 PM77 °FScattered clouds.5 mph82%29.98 "Hg10 mi
6:53 PM78 °FPassing clouds.8 mph76%29.98 "Hg10 mi
5:53 PM79 °FScattered clouds.14 mph77%29.98 "Hg10 mi
5:00 PM77 °FPartly sunny.9 mph90%29.99 "Hg10 mi
4:04 PM82 °FScattered clouds.12 mph70%29.99 "Hg10 mi
3:53 PM81 °FPartly sunny.14 mph72%29.99 "Hg10 mi
2:53 PM79 °FScattered clouds.13 mph79%30.00 "Hg10 mi
Weather by CustomWeather, © 2016

See weather overviewHow to use our weather pages